Observations for Trim Market St
| Time | AQI | Temp °C | Hum % | Pres Pa | CO μg/m³ | H₂S μg/m³ | NO μg/m³ | NO₂ μg/m³ | O₃ μg/m³ | SO₂ μg/m³ | PM1 μg/m³ | PM2.5 μg/m³ | PM10 μg/m³ |
|---|---|---|---|---|---|---|---|---|---|---|---|---|---|
| Saturday 22 August 2026 | |||||||||||||
| 06:33 | 2 | 10.8 | 76 | 47,218 | 0.47 | 0 | 3.61 | 11.29 | 36.38 | 0 | 2.85 | 4.71 | 8.12 |
| 06:32 | 2 | 10.8 | 76 | 47,207 | 0.48 | 0 | 3.92 | 11.46 | 36.86 | 0 | 2.14 | 4.23 | 6.94 |
| 06:31 | 2 | 10.8 | 75 | 47,195 | 0.48 | 0 | 4.68 | 10.83 | 37.76 | 0 | 1.43 | 3.28 | 6.34 |
| 06:30 | 2 | 10.8 | 75 | 47,147 | 0.47 | 0 | 4.32 | 11.44 | 35.89 | 0 | 3.56 | 4.71 | 8.13 |
| 06:28 | 2 | 10.8 | 75 | 47,066 | 0.47 | 0 | 4.47 | 11.78 | 38.14 | 0 | 2.14 | 4.23 | 6.94 |
| 06:27 | 2 | 10.8 | 75 | 47,057 | 0.47 | 0 | 3.72 | 12.15 | 36.1 | 0 | 1.43 | 2.8 | 5.75 |
| 06:24 | 2 | 10.8 | 75 | 46,978 | 0.47 | 0 | 3.45 | 11.76 | 38.7 | 0 | 2.14 | 3.76 | 6.94 |
| 06:22 | 2 | 10.9 | 75 | 47,008 | 0.46 | 0 | 3.43 | 11.9 | 37.12 | 0 | 1.43 | 3.77 | 8.72 |
| 06:19 | 2 | 10.9 | 75 | 47,175 | 0.45 | 0 | 4.06 | 11.88 | 41.23 | 0 | 1.43 | 4.25 | 8.13 |
| 06:14 | 2 | 10.8 | 75 | 48,028 | 0.44 | 0 | 4.86 | 12.19 | 39.88 | 0 | 2.14 | 3.3 | 5.74 |
| 06:09 | 2 | 10.8 | 74 | 49,083 | 0.43 | 0 | 5.03 | 11.73 | 40.1 | 0 | 2.85 | 4.76 | 7.53 |
| 06:08 | 2 | 10.8 | 74 | 49,341 | 0.43 | 0 | 4.79 | 12.54 | 43.64 | 0 | 2.14 | 4.29 | 7.53 |
| 06:07 | 2 | 10.8 | 74 | 49,596 | 0.44 | 0 | 4.79 | 11.6 | 44.65 | 0 | 1.43 | 4.29 | 7.53 |
| 06:05 | 2 | 10.8 | 74 | 50,044 | 0.41 | 0 | 3.71 | 11.49 | 39.65 | 0 | 1.43 | 2.85 | 5.13 |
| 06:04 | 2 | 10.8 | 74 | 50,283 | 0.4 | 0 | 3.97 | 11.68 | 43.46 | 0 | 2.14 | 3.34 | 6.93 |
| 06:03 | 2 | 10.8 | 74 | 50,506 | 0.41 | 0 | 3.61 | 10.06 | 42.22 | 0 | 2.85 | 3.82 | 7.53 |
| 06:02 | 2 | 10.8 | 74 | 50,706 | 0.4 | 0 | 3.68 | 11.45 | 44.18 | 0 | 1.43 | 2.86 | 5.72 |
| 06:01 | 2 | 10.9 | 74 | 50,921 | 0.4 | 0 | 3.17 | 10.93 | 44.67 | 0 | 1.43 | 3.35 | 5.72 |
| 06:00 | 2 | 10.9 | 74 | 51,107 | 0.39 | 0 | 3.8 | 10.46 | 41.86 | 0 | 1.43 | 3.35 | 6.32 |
| 05:59 | 2 | 10.9 | 74 | 51,291 | 0.41 | 0 | 3.67 | 11.27 | 46.01 | 0 | 2.14 | 4.32 | 6.93 |